Seldovia, AK

10:29 PM AKDT on September 19, 2017 (GMT -0800)
Seldovia

Weather History for PASO - February, 2013

Change the Weather History Date:

Friday, February 22, 2013

  Actual Average (PAHO) Record (PAHO)
Temperature  
Mean Temperature 24 °F -  
Max Temperature 28 °F 32 °F 51 °F (2015)
Min Temperature 21 °F 18 °F -3 °F (1966)
Degree Days  
Heating Degree Days 40    
Moisture  
Dew Point 16 °F    
Average Humidity 69    
Maximum Humidity 88    
Minimum Humidity 56    
Precipitation  
Precipitation 0.00 in - - ()
Sea Level Pressure  
Sea Level Pressure 29.41 in    
Wind  
Wind Speed 7 mph (South)    
Max Wind Speed 12 mph    
Max Gust Speed 26 mph    
Visibility 10 miles    
Events      
Averages and records for this station are not official NWS values.
T = Trace of Precipitation, MM = Missing Value Source: NWS Daily Summary

Daily Weather History Graph

Daily Weather History Graph

Search for Another Location

Airport or City:

Trip Planner

Search our weather history database for the weather conditions in past years. The results will help you decide how hot, cold, wet, or windy it might be!

Date:

Astronomy

Feb. 22, 2013 Rise Set
Actual Time 8:22 AM AKST 6:19 PM AKST
Civil Twilight 7:40 AM AKST 7:01 PM AKST
Nautical Twilight 6:53 AM AKST 7:48 PM AKST
Astronomical Twilight 6:05 AM AKST 8:36 PM AKST
Moon 3:13 PM AKST (2/22) 6:44 AM AKST (2/22)
Length of Visible Light 11h 20m
Length of Day
9h 56m
Waxing Gibbous, 91% of the Moon is Illuminated
Feb 22
Waxing Gibbous
Feb 25
Full
Mar 4
Last Quarter
Mar 11
New
Mar 19
First Quarter

Hourly Weather History & Observations

Time (AKST) Temp. Windchill Dew Point Humidity Pressure Visibility Wind Dir Wind Speed Gust Speed Precip Events Conditions
12:53 AM 23.0 °F 14.7 °F 16.0 °F 74% 29.31 in 10.0 mi Variable 6.9 mph 18.4 mph N/A   Overcast
1:53 AM 23.0 °F 13.9 °F 16.0 °F 74% 29.33 in 10.0 mi South 8.1 mph 16.1 mph N/A   Overcast
2:53 AM 23.0 °F 13.1 °F 15.1 °F 72% 29.34 in 10.0 mi South 9.2 mph 18.4 mph N/A   Scattered Clouds
3:53 AM 23.0 °F 11.7 °F 14.0 °F 68% 29.34 in 10.0 mi South 11.5 mph 26.5 mph N/A   Clear
4:53 AM 23.0 °F 13.1 °F 14.0 °F 68% 29.36 in 9.0 mi SSW 9.2 mph 20.7 mph N/A   Clear
5:53 AM 24.1 °F 17.0 °F 14.0 °F 65% 29.39 in 10.0 mi Variable 5.8 mph - N/A   Clear
6:53 AM 25.0 °F 17.1 °F 14.0 °F 63% 29.40 in 10.0 mi Variable 6.9 mph 23.0 mph N/A   Clear
7:53 AM 25.0 °F 15.5 °F 15.1 °F 66% 29.40 in 10.0 mi South 9.2 mph 17.3 mph N/A   Clear
8:53 AM 26.1 °F 19.4 °F 14.0 °F 60% 29.42 in 10.0 mi South 5.8 mph 23.0 mph N/A   Partly Cloudy
9:53 AM 26.1 °F 17.6 °F 14.0 °F 60% 29.42 in 10.0 mi South 8.1 mph 18.4 mph N/A   Clear
10:53 AM 28.0 °F 19.3 °F 16.0 °F 61% 29.44 in 10.0 mi South 9.2 mph 18.4 mph N/A   Clear
11:53 AM 28.9 °F 21.1 °F 16.0 °F 58% 29.47 in 10.0 mi SSW 8.1 mph - N/A   Clear
12:53 PM 28.9 °F 20.4 °F 15.1 °F 56% 29.48 in 10.0 mi South 9.2 mph 20.7 mph N/A   Clear
1:53 PM 28.0 °F 21.7 °F 16.0 °F 61% 29.48 in 10.0 mi Variable 5.8 mph - N/A   Clear
2:53 PM 28.0 °F 20.8 °F 15.1 °F 58% 29.48 in 10.0 mi Variable 6.9 mph 20.7 mph N/A   Clear
3:53 PM 28.9 °F 21.1 °F 15.1 °F 56% 29.47 in 10.0 mi South 8.1 mph - N/A   Clear
4:53 PM 28.0 °F 24.2 °F 16.0 °F 61% 29.47 in 10.0 mi Variable 3.5 mph - N/A   Clear
5:53 PM 28.0 °F 24.2 °F 17.1 °F 63% 29.47 in 10.0 mi Variable 3.5 mph - N/A   Mostly Cloudy
6:53 PM 25.0 °F - 19.0 °F 78% 29.44 in 10.0 mi Calm Calm - N/A   Scattered Clouds
7:53 PM 23.0 °F - 18.0 °F 81% 29.43 in 10.0 mi Calm Calm - N/A   Mostly Cloudy
8:53 PM 21.9 °F - 18.0 °F 85% 29.39 in 10.0 mi Calm Calm - N/A   Clear
9:53 PM 21.0 °F - 18.0 °F 88% 29.38 in 10.0 mi Calm Calm - N/A   Clear
10:53 PM 21.9 °F - 18.0 °F 85% 29.35 in 10.0 mi Calm Calm - N/A   Clear
11:53 PM 23.0 °F - 19.0 °F 85% 29.32 in 10.0 mi Calm Calm - N/A   Mostly Cloudy